FW4443 Weather Reports


time (UTC)temp
C
wind
direction
speed
KPH
gust
KPH
rain 1hr
cm
rain 24hr
cm
rain mn
cm
humidity
%
barometer
mb
20260502163309 25 34 3.2 16.1 0.00 0.00 0.00 15 1017.9
20260502162951 25 121 3.2 16.1 0.00 0.00 0.00 15 1018.0
20260502162625 25 23 3.2 16.1 0.00 0.00 0.00 16 1018.0
20260502162308 25 14 4.8 16.1 0.00 0.00 0.00 16 1018.0
20260502161943 25 108 3.2 16.1 0.00 0.00 0.00 19 1018.0
20260502161619 25 35 3.2 11.3 0.00 0.00 0.00 15 1018.1
20260502161254 24 26 3.2 8.0 0.00 0.00 0.00 15 1018.0
20260502160636 24 91 1.6 9.7 0.00 0.00 0.00 15 1018.1
20260502160321 23 148 1.6 9.7 0.00 0.00 0.00 16 1018.0
20260502152333 21 200 3.2 8.0 0.00 0.00 0.00 18 1017.8
20260502152011 21 166 3.2 8.0 0.00 0.00 0.00 20 1017.8
20260502151656 21 146 3.2 8.0 0.00 0.00 0.00 19 1017.7
20260502151341 21 154 3.2 8.0 0.00 0.00 0.00 19 1017.8
20260502151025 20 152 3.2 6.4 0.00 0.00 0.00 23 1017.6
20260502150709 20 155 3.2 6.4 0.00 0.00 0.00 21 1017.6
20260502150344 18 148 1.6 6.4 0.00 0.00 0.00 21 1017.7
20260502140129 14 0 0.0 0.0 0.00 0.00 0.00 32 1017.2
20260502130502 13 0 3.2 8.0 0.00 0.00 0.00 28 1016.7
20260502130144 13 252 3.2 8.0 0.00 0.00 0.00 27 1016.7
20260502123627 13 0 3.2 4.8 0.00 0.00 0.00 28 1016.5
20260502123309 13 0 3.2 4.8 0.00 0.00 0.00 27 1016.4
20260502122955 13 0 3.2 4.8 0.00 0.00 0.00 27 1016.4
20260502122338 14 0 3.2 4.8 0.00 0.00 0.00 27 1016.3
20260502122018 14 0 1.6 4.8 0.00 0.00 0.00 27 1016.2
20260502121704 14 0 1.6 4.8 0.00 0.00 0.00 28 1016.2
20260502121345 14 0 1.6 3.2 0.00 0.00 0.00 27 1016.3
20260502121020 14 0 1.6 3.2 0.00 0.00 0.00 26 1016.2
20260502120403 14 0 1.6 4.8 0.00 0.00 0.00 26 1016.2
20260502115726 14 0 1.6 4.8 0.00 0.00 0.00 26 1016.2
20260502115402 14 0 3.2 6.4 0.00 0.00 0.00 26 1016.2
20260502115041 14 0 3.2 6.4 0.00 0.00 0.00 26 1016.1
20260502114723 15 0 3.2 6.4 0.00 0.00 0.00 28 1016.1
20260502114407 15 0 4.8 6.4 0.00 0.00 0.00 27 1016.2
20260502114042 15 0 4.8 6.4 0.00 0.00 0.00 28 1016.1
20260502113718 15 0 3.2 6.4 0.00 0.00 0.00 30 1016.2
20260502113404 15 0 3.2 4.8 0.00 0.00 0.00 26 1016.2
20260502113050 15 0 3.2 4.8 0.00 0.00 0.00 26 1016.2
20260502112732 15 0 3.2 4.8 0.00 0.00 0.00 33 1016.2
20260502112413 15 0 3.2 4.8 0.00 0.00 0.00 36 1016.2
20260502112055 15 0 1.6 4.8 0.00 0.00 0.00 32 1016.2
20260502111737 15 0 1.6 4.8 0.00 0.00 0.00 24 1016.2
20260502111415 15 0 0.0 4.8 0.00 0.00 0.00 24 1016.2
20260502110756 15 0 0.0 0.0 0.00 0.00 0.00 24 1016.3
20260502110138 15 0 0.0 0.0 0.00 0.00 0.00 24 1016.3
20260502105821 15 0 0.0 0.0 0.00 0.00 0.00 24 1016.3
20260502105500 15 0 0.0 0.0 0.00 0.00 0.00 24 1016.2
20260502104842 15 0 0.0 0.0 0.00 0.00 0.00 23 1016.1
20260502104517 15 0 0.0 0.0 0.00 0.00 0.00 24 1016.1
20260502104158 15 0 0.0 0.0 0.00 0.00 0.00 23 1016.0
20260502103839 15 0 0.0 0.0 0.00 0.00 0.00 23 1016.0
20260502103524 16 0 0.0 0.0 0.00 0.00 0.00 23 1016.0
20260502103200 16 0 0.0 0.0 0.00 0.00 0.00 23 1016.1
20260502102843 16 0 0.0 0.0 0.00 0.00 0.00 22 1016.0
20260502102220 16 0 1.6 4.8 0.00 0.00 0.00 21 1016.1
20260502101859 16 0 1.6 3.2 0.00 0.00 0.00 21 1016.0
20260502101536 16 0 1.6 3.2 0.00 0.00 0.00 21 1016.0
20260502101211 17 0 1.6 3.2 0.00 0.00 0.00 21 1016.1
20260502100851 17 0 1.6 4.8 0.00 0.00 0.00 20 1016.1
20260502100536 17 0 1.6 4.8 0.00 0.00 0.00 20 1016.0
20260502100212 17 0 1.6 4.8 0.00 0.00 0.00 20 1016.1
20260502091244 19 0 1.6 11.3 0.00 0.00 0.00 16 1016.1
20260502090918 19 0 1.6 11.3 0.00 0.00 0.00 16 1016.2
20260502090553 19 0 1.6 11.3 0.00 0.00 0.00 16 1016.1
20260502090232 19 0 3.2 11.3 0.00 0.00 0.00 15 1016.2
20260502071422 19 0 1.6 11.3 0.00 0.00 0.00 14 1016.3
20260502071103 20 0 1.6 6.4 0.00 0.00 0.00 15 1016.3
20260502070741 20 0 0.0 6.4 0.00 0.00 0.00 15 1016.3
20260502070423 20 0 1.6 6.4 0.00 0.00 0.00 15 1016.2
20260502070100 20 0 1.6 6.4 0.00 0.00 0.00 15 1016.2
20260502065737 20 0 1.6 6.4 0.00 0.00 0.00 15 1016.1
20260502065117 20 0 1.6 6.4 0.00 0.00 0.00 14 1016.1
20260502064755 20 0 3.2 6.4 0.00 0.00 0.00 14 1016.1
20260502064437 20 0 1.6 6.4 0.00 0.00 0.00 14 1016.0
20260502064122 21 0 1.6 6.4 0.00 0.00 0.00 14 1016.0
20260502063801 21 0 1.6 4.8 0.00 0.00 0.00 14 1015.9
20260502063441 21 0 1.6 4.8 0.00 0.00 0.00 13 1015.9
20260502063126 21 0 1.6 4.8 0.00 0.00 0.00 13 1015.9
20260502062800 21 0 1.6 4.8 0.00 0.00 0.00 14 1015.9
20260502062438 21 0 0.0 8.0 0.00 0.00 0.00 13 1015.9
20260502062115 21 0 1.6 8.0 0.00 0.00 0.00 13 1015.8
20260502061759 21 0 1.6 8.0 0.00 0.00 0.00 13 1015.8
20260502061136 21 0 3.2 8.0 0.00 0.00 0.00 14 1015.8
20260502060817 21 0 1.6 8.0 0.00 0.00 0.00 13 1015.7
20260502060455 21 0 1.6 6.4 0.00 0.00 0.00 14 1015.6
20260502055839 21 0 3.2 6.4 0.00 0.00 0.00 13 1015.6
20260502055516 21 0 1.6 6.4 0.00 0.00 0.00 13 1015.5
20260502055156 22 0 1.6 8.0 0.00 0.00 0.00 13 1015.5
20260502054834 22 0 1.6 8.0 0.00 0.00 0.00 13 1015.5
20260502053911 22 0 3.2 8.0 0.00 0.00 0.00 13 1015.4
20260502053550 22 0 3.2 8.0 0.00 0.00 0.00 13 1015.4
20260502053228 22 0 3.2 8.0 0.00 0.00 0.00 13 1015.4
20260502052907 22 0 3.2 11.3 0.00 0.00 0.00 13 1015.4
20260502052548 22 0 3.2 11.3 0.00 0.00 0.00 13 1015.3
20260502052223 22 0 3.2 20.9 0.00 0.00 0.00 13 1015.4
20260502051858 22 0 4.8 20.9 0.00 0.00 0.00 13 1015.3
20260502051540 22 0 4.8 20.9 0.00 0.00 0.00 13 1015.2
20260502051218 22 0 8.0 20.9 0.00 0.00 0.00 13 1015.3
20260502050856 21 0 6.4 20.9 0.00 0.00 0.00 13 1015.2
20260502050534 21 0 6.4 20.9 0.00 0.00 0.00 13 1015.2
20260502050217 21 0 3.2 14.5 0.00 0.00 0.00 14 1015.2
20260502045857 21 0 3.2 11.3 0.00 0.00 0.00 14 1015.0
20260502045533 21 0 3.2 11.3 0.00 0.00 0.00 15 1015.0
20260502045209 21 0 3.2 11.3 0.00 0.00 0.00 16 1014.9
20260502044549 22 0 3.2 8.0 0.00 0.00 0.00 16 1014.9
20260502044231 22 0 3.2 8.0 0.00 0.00 0.00 15 1014.8
20260502043912 22 0 4.8 8.0 0.00 0.00 0.00 15 1014.7
20260502043551 22 0 4.8 8.0 0.00 0.00 0.00 15 1014.7
20260502043233 22 0 3.2 8.0 0.00 0.00 0.00 14 1014.7
20260502042912 22 0 1.6 8.0 0.00 0.00 0.00 14 1014.7
20260502042557 22 0 1.6 4.8 0.00 0.00 0.00 13 1014.5
20260502042236 22 0 0.0 4.8 0.00 0.00 0.00 14 1014.4
20260502041918 22 0 0.0 4.8 0.00 0.00 0.00 13 1014.3
20260502041555 23 0 0.0 4.8 0.00 0.00 0.00 13 1014.3
20260502041238 23 0 0.0 1.6 0.00 0.00 0.00 13 1014.2
20260502040923 23 0 1.6 8.0 0.00 0.00 0.00 12 1014.2
20260502040605 23 0 3.2 8.0 0.00 0.00 0.00 12 1014.2
20260502040245 23 0 1.6 8.0 0.00 0.00 0.00 12 1014.2
20260502035921 23 0 1.6 8.0 0.00 0.00 0.00 12 1014.1
20260502035604 23 0 1.6 4.8 0.00 0.00 0.00 12 1014.1
20260502035238 23 0 1.6 8.0 0.00 0.00 0.00 12 1014.0
20260502034915 23 0 1.6 8.0 0.00 0.00 0.00 12 1013.9
20260502034551 24 0 3.2 8.0 0.00 0.00 0.00 12 1013.9
20260502034229 24 0 3.2 11.3 0.00 0.00 0.00 12 1013.8
20260502033904 24 0 3.2 11.3 0.00 0.00 0.00 11 1013.8
20260502033539 24 0 3.2 11.3 0.00 0.00 0.00 11 1013.7
20260502033223 25 0 3.2 11.3 0.00 0.00 0.00 11 1013.7
20260502032909 25 0 3.2 11.3 0.00 0.00 0.00 11 1013.6
20260502032554 25 0 3.2 11.3 0.00 0.00 0.00 11 1013.6
20260502032233 25 0 3.2 12.9 0.00 0.00 0.00 11 1013.6
20260502031919 25 0 3.2 12.9 0.00 0.00 0.00 11 1013.5
20260502031557 25 0 3.2 12.9 0.00 0.00 0.00 11 1013.4
20260502031239 25 0 4.8 20.9 0.00 0.00 0.00 11 1013.3
20260502030915 25 0 4.8 20.9 0.00 0.00 0.00 11 1013.2
20260502030600 25 0 6.4 20.9 0.00 0.00 0.00 11 1013.2
20260502030235 25 0 8.0 20.9 0.00 0.00 0.00 11 1013.1
20260502025920 25 0 9.7 20.9 0.00 0.00 0.00 11 1013.0
20260502025306 25 0 8.0 17.7 0.00 0.00 0.00 11 1012.9
20260502024943 25 0 8.0 16.1 0.00 0.00 0.00 11 1012.9
20260502024624 25 0 8.0 16.1 0.00 0.00 0.00 11 1012.9
20260502024308 25 0 6.4 16.1 0.00 0.00 0.00 11 1013.0
20260502023950 25 0 4.8 14.5 0.00 0.00 0.00 11 1012.8
20260502023335 25 0 4.8 12.9 0.00 0.00 0.00 11 1012.7
20260502023011 25 0 6.4 16.1 0.00 0.00 0.00 11 1012.7
20260502022650 25 0 6.4 16.1 0.00 0.00 0.00 11 1012.7
20260502022326 25 0 6.4 16.1 0.00 0.00 0.00 11 1012.7
20260502022003 25 0 8.0 16.1 0.00 0.00 0.00 11 1012.6
20260502021641 26 0 6.4 16.1 0.00 0.00 0.00 11 1012.6
20260502021023 26 0 4.8 12.9 0.00 0.00 0.00 11 1012.5
20260502020708 26 0 4.8 12.9 0.00 0.00 0.00 11 1012.7
20260502020350 26 101 3.2 12.9 0.00 0.00 0.00 11 1012.6
20260502020029 26 61 3.2 12.9 0.00 0.00 0.00 13 1012.6
20260502015711 26 39 3.2 12.9 0.00 0.00 0.00 12 1012.5
20260502015356 26 345 3.2 12.9 0.00 0.00 0.00 12 1012.5
20260502014432 26 0 3.2 9.7 0.00 0.00 0.00 12 1012.4
20260502014115 26 71 3.2 9.7 0.00 0.00 0.00 11 1012.4
20260502013801 26 52 3.2 9.7 0.00 0.00 0.00 12 1012.3
20260502013445 26 65 3.2 9.7 0.00 0.00 0.00 12 1012.3
20260502013126 26 80 1.6 6.4 0.00 0.00 0.00 12 1012.4
20260502012801 27 44 1.6 6.4 0.00 0.00 0.00 12 1012.4
20260502012437 27 21 3.2 14.5 0.00 0.00 0.00 12 1012.3
20260502012112 27 78 3.2 14.5 0.00 0.00 0.00 12 1012.4
20260502011749 27 114 4.8 14.5 0.00 0.00 0.00 12 1012.3
20260502011423 27 105 4.8 14.5 0.00 0.00 0.00 12 1012.3
20260502011108 27 101 6.4 14.5 0.00 0.00 0.00 12 1012.3
20260502010753 27 55 6.4 14.5 0.00 0.00 0.00 12 1012.3
20260502010429 27 110 6.4 20.9 0.00 0.00 0.00 12 1012.3
20260502010113 27 79 6.4 20.9 0.00 0.00 0.00 12 1012.2
20260502005748 27 62 6.4 20.9 0.00 0.00 0.00 12 1012.3
20260502005424 27 66 6.4 20.9 0.00 0.00 0.00 12 1012.2
20260502004809 27 130 4.8 20.9 0.00 0.00 0.00 11 1012.2
20260502004452 27 26 4.8 16.1 0.00 0.00 0.00 11 1012.2
20260502004128 28 22 4.8 16.1 0.00 0.00 0.00 11 1012.3
20260502003502 28 40 3.2 12.9 0.00 0.00 0.00 12 1012.2
20260502003143 28 34 3.2 24.1 0.00 0.00 0.00 12 1012.2
20260502002819 28 350 4.8 24.1 0.00 0.00 0.00 11 1012.2
20260502002459 28 232 8.0 24.1 0.00 0.00 0.00 11 1012.3
20260502001838 28 109 9.7 24.1 0.00 0.00 0.00 12 1012.4
20260502001516 28 51 9.7 24.1 0.00 0.00 0.00 13 1012.3
20260502001151 28 90 9.7 17.7 0.00 0.00 0.00 11 1012.3
20260502000833 28 133 9.7 16.1 0.00 0.00 0.00 12 1012.4
20260502000512 28 144 9.7 16.1 0.00 0.00 0.00 12 1012.4
20260501235851 28 111 8.0 19.3 0.00 0.00 0.00 12 1012.4
20260501235532 29 118 8.0 19.3 0.00 0.00 0.00 11 1012.4
20260501235211 29 103 6.4 19.3 0.00 0.00 0.00 11 1012.4
20260501234251 29 81 8.0 19.3 0.00 0.00 0.00 11 1012.4
20260501233928 29 28 8.0 17.7 0.00 0.00 0.00 11 1012.4
20260501233607 29 21 9.7 17.7 0.00 0.00 0.00 11 1012.4
20260501233250 29 33 8.0 17.7 0.00 0.00 0.00 11 1012.5
20260501232930 29 98 6.4 17.7 0.00 0.00 0.00 12 1012.4
20260501232612 30 115 6.4 25.7 0.00 0.00 0.00 11 1012.4
20260501231651 29 23 11.3 25.7 0.00 0.00 0.00 11 1012.4
20260501230735 29 171 9.7 24.1 0.00 0.00 0.00 11 1012.4
20260501230417 29 123 11.3 24.1 0.00 0.00 0.00 12 1012.4
20260501230057 29 105 9.7 24.1 0.00 0.00 0.00 14 1012.5
20260501225742 29 88 11.3 24.1 0.00 0.00 0.00 12 1012.6
20260501225116 29 63 9.7 22.5 0.00 0.00 0.00 13 1012.6
20260501224753 28 87 6.4 27.4 0.00 0.00 0.00 14 1012.5
20260501224436 29 65 6.4 27.4 0.00 0.00 0.00 12 1012.6
20260501224112 28 105 9.7 27.4 0.00 0.00 0.00 15 1012.7
20260501223457 30 101 12.9 27.4 0.00 0.00 0.00 14 1012.9
20260501223141 29 120 9.7 27.4 0.00 0.00 0.00 13 1012.8
20260501222820 29 136 8.0 27.4 0.00 0.00 0.00 13 1012.9
20260501222457 29 101 9.7 27.4 0.00 0.00 0.00 12 1012.8
20260501221841 30 119 11.3 27.4 0.00 0.00 0.00 12 1013.0
20260501221523 30 37 9.7 27.4 0.00 0.00 0.00 12 1012.9
20260501220301 30 84 6.4 22.5 0.00 0.00 0.00 13 1013.2
20260501215946 30 33 4.8 17.7 0.00 0.00 0.00 12 1013.2
20260501215621 29 57 3.2 11.3 0.00 0.00 0.00 13 1013.3
20260501215305 29 74 4.8 16.1 0.00 0.00 0.00 13 1013.3
20260501214938 30 355 6.4 16.1 0.00 0.00 0.00 11 1013.4
20260501214621 30 9 6.4 16.1 0.00 0.00 0.00 13 1013.5
20260501214304 30 5 6.4 25.7 0.00 0.00 0.00 12 1013.4
20260501213941 30 0 6.4 25.7 0.00 0.00 0.00 13 1013.4
20260501213625 30 355 6.4 25.7 0.00 0.00 0.00 14 1013.6
20260501213311 30 57 9.7 25.7 0.00 0.00 0.00 12 1013.6
20260501212947 29 30 8.0 25.7 0.00 0.00 0.00 16 1013.6
20260501212628 29 5 6.4 25.7 0.00 0.00 0.00 13 1013.7
20260501212012 29 81 3.2 9.7 0.00 0.00 0.00 13 1013.8
20260501211351 30 113 4.8 12.9 0.00 0.00 0.00 16 1014.0
20260501211032 31 101 4.8 12.9 0.00 0.00 0.00 12 1014.0
20260501210716 30 36 4.8 19.3 0.00 0.00 0.00 13 1014.0
20260501210357 29 105 6.4 19.3 0.00 0.00 0.00 15 1014.1
20260501210036 30 157 8.0 19.3 0.00 0.00 0.00 15 1014.2
20260501205715 30 63 9.7 19.3 0.00 0.00 0.00 13 1014.2
20260501205351 31 42 9.7 19.3 0.00 0.00 0.00 12 1014.3
20260501205026 30 5 9.7 19.3 0.00 0.00 0.00 13 1014.2
20260501204707 30 57 8.0 17.7 0.00 0.00 0.00 15 1014.2
20260501204343 30 108 6.4 17.7 0.00 0.00 0.00 14 1014.3
20260501204020 29 80 4.8 17.7 0.00 0.00 0.00 15 1014.3
20260501203705 28 161 3.2 16.1 0.00 0.00 0.00 15 1014.2
20260501203348 28 108 3.2 16.1 0.00 0.00 0.00 13 1014.3
20260501203032 28 178 3.2 22.5 0.00 0.00 0.00 14 1014.7
20260501202718 28 104 4.8 22.5 0.00 0.00 0.00 14 1014.4
20260501202056 29 90 9.7 22.5 0.00 0.00 0.00 13 1014.5
20260501201742 29 35 8.0 22.5 0.00 0.00 0.00 13 1014.5
20260501201422 30 32 8.0 22.5 0.00 0.00 0.00 13 1014.5
20260501201102 30 59 6.4 20.9 0.00 0.00 0.00 15 1014.6
20260501200745 29 26 6.4 16.1 0.00 0.00 0.00 15 1014.6
20260501200429 28 59 4.8 16.1 0.00 0.00 0.00 15 1014.8
20260501200112 28 110 3.2 16.1 0.00 0.00 0.00 14 1014.8
20260501195755 28 28 3.2 17.7 0.00 0.00 0.00 15 1014.8
20260501195438 28 56 3.2 17.7 0.00 0.00 0.00 13 1014.9
20260501195119 28 17 4.8 17.7 0.00 0.00 0.00 13 1015.0
20260501194459 30 82 6.4 17.7 0.00 0.00 0.00 12 1015.0
20260501194140 30 49 4.8 17.7 0.00 0.00 0.00 12 1015.0
20260501193825 30 57 3.2 14.5 0.00 0.00 0.00 15 1015.1
20260501193502 30 243 4.8 14.5 0.00 0.00 0.00 12 1015.1
20260501193147 30 11 4.8 14.5 0.00 0.00 0.00 13 1015.3
20260501191920 30 297 3.2 16.1 0.00 0.00 0.00 13 1015.4
20260501191605 28 38 3.2 22.5 0.00 0.00 0.00 13 1015.5
20260501191247 29 126 4.8 22.5 0.00 0.00 0.00 14 1015.5
20260501190924 28 10 6.4 22.5 0.00 0.00 0.00 14 1015.5
20260501190603 29 59 8.0 22.5 0.00 0.00 0.00 15 1015.6
20260501190249 29 71 9.7 22.5 0.00 0.00 0.00 12 1015.6
20260501185930 29 74 11.3 22.5 0.00 0.00 0.00 16 1015.5
20260501185604 29 120 11.3 20.9 0.00 0.00 0.00 14 1015.5
20260501185242 28 99 9.7 25.7 0.00 0.00 0.00 14 1015.6
20260501184318 28 72 9.7 25.7 0.00 0.00 0.00 13 1015.6
20260501183954 28 57 11.3 25.7 0.00 0.00 0.00 14 1015.8
20260501183336 28 104 9.7 25.7 0.00 0.00 0.00 14 1015.9
20260501183014 28 103 6.4 17.7 0.00 0.00 0.00 15 1016.0
20260501182651 28 145 6.4 16.1 0.00 0.00 0.00 14 1015.9
20260501182328 27 65 6.4 16.1 0.00 0.00 0.00 14 1016.1
20260501181707 28 95 4.8 17.7 0.00 0.00 0.00 16 1016.1
20260501181341 27 138 4.8 17.7 0.00 0.00 0.00 14 1016.1
20260501181019 27 5 6.4 17.7 0.00 0.00 0.00 13 1016.1
20260501180700 27 70 6.4 17.7 0.00 0.00 0.00 14 1016.2
20260501180338 27 30 4.8 17.7 0.00 0.00 0.00 14 1016.2
20260501180015 27 84 3.2 16.1 0.00 0.00 0.00 14 1016.2
20260501175654 27 0 3.2 16.1 0.00 0.00 0.00 15 1016.2
20260501175035 26 0 6.4 16.1 0.00 0.00 0.00 19 1016.3
20260501174710 26 0 6.4 16.1 0.00 0.00 0.00 17 1016.3
20260501174349 26 0 4.8 16.1 0.00 0.00 0.00 15 1016.2
20260501174030 26 0 6.4 14.5 0.00 0.00 0.00 15 1016.3
20260501173710 26 0 6.4 14.5 0.00 0.00 0.00 17 1016.3
20260501173345 27 46 6.4 14.5 0.00 0.00 0.00 16 1016.3
20260501173024 27 36 3.2 12.9 0.00 0.00 0.00 15 1016.3
20260501172702 26 5 3.2 12.9 0.00 0.00 0.00 17 1016.3
20260501172016 26 77 3.2 12.9 0.00 0.00 0.00 17 1016.3
20260501171655 25 82 3.2 12.9 0.00 0.00 0.00 17 1016.4
20260501171335 25 38 4.8 16.1 0.00 0.00 0.00 18 1016.2
20260501171021 25 93 6.4 16.1 0.00 0.00 0.00 17 1016.3
20260501170655 25 62 8.0 16.1 0.00 0.00 0.00 17 1016.3
20260501170333 25 103 6.4 19.3 0.00 0.00 0.00 19 1016.4
20260501170018 25 80 4.8 19.3 0.00 0.00 0.00 18 1016.4
20260501165653 25 95 4.8 19.3 0.00 0.00 0.00 18 1016.3
20260501165331 25 0 6.4 19.3 0.00 0.00 0.00 18 1016.4
20260501164708 25 0 4.8 19.3 0.00 0.00 0.00 21 1016.3
20260501164354 24 0 1.6 19.3 0.00 0.00 0.00 17 1016.3
20260501164032 25 0 3.2 14.5 0.00 0.00 0.00 17 1016.3
20260501163711 24 0 3.2 14.5 0.00 0.00 0.00 19 1016.3